DW5938 Weather Reports


Display with metric or nautical units.
time (UTC)temp
F
wind
direction
speed
MPH
gust
MPH
rain 1hr
in
rain 24hr
in
rain mn
in
humidity
%
barometer
mb
20220525192002 73 156 0.0 0.0 0.00 0.00 0.00 33 1011.5
20220525191501 72 156 0.0 0.0 0.00 0.00 0.00 34 1011.6
20220525190503 72 155 0.0 0.0 0.00 0.00 0.00 32 1011.7
20220525190002 73 156 0.0 0.0 0.00 0.00 0.00 32 1011.7
20220525185503 73 155 0.0 0.0 0.00 0.00 0.00 32 1011.8
20220525185002 73 156 0.0 0.0 0.00 0.00 0.00 32 1011.9
20220525184500 73 156 0.0 0.0 0.00 0.00 0.00 32 1011.9
20220525184100 73 156 0.0 0.0 0.00 0.00 0.00 31 1011.9
20220525183604 73 156 0.0 11.0 0.00 0.00 0.00 33 1012.0
20220525183103 73 156 1.0 11.0 0.00 0.00 0.00 32 1012.1
20220525182600 74 156 6.0 9.0 0.00 0.00 0.00 32 1012.2
20220525182058 74 156 3.0 12.0 0.00 0.00 0.00 31 1012.3
20220525181609 74 156 5.0 15.0 0.00 0.00 0.00 32 1012.3
20220525181158 72 156 3.0 14.0 0.00 0.00 0.00 35 1012.5
20220525180556 72 156 4.0 14.0 0.00 0.00 0.00 34 1012.5
20220525180059 71 156 0.0 11.0 0.00 0.00 0.00 35 1012.6
20220525175553 72 155 6.0 11.0 0.00 0.00 0.00 34 1012.6
20220525175052 72 156 2.0 11.0 0.00 0.00 0.00 33 1012.8
20220525174552 72 156 6.0 11.0 0.00 0.00 0.00 33 1012.8
20220525174053 72 156 5.0 14.0 0.00 0.00 0.00 34 1012.9
20220525173651 72 155 3.0 15.0 0.00 0.00 0.00 34 1013.0
20220525173049 72 156 5.0 15.0 0.00 0.00 0.00 35 1013.0
20220525172548 72 156 8.0 13.0 0.00 0.00 0.00 36 1013.2
20220525172050 72 156 5.0 12.0 0.00 0.00 0.00 36 1013.1
20220525171602 72 156 2.0 11.0 0.00 0.00 0.00 36 1013.2
20220525171146 71 156 4.0 12.0 0.00 0.00 0.00 38 1013.2
20220525170545 71 156 2.0 13.0 0.00 0.00 0.00 38 1013.3
20220525170043 71 156 3.0 14.0 0.00 0.00 0.00 40 1013.3
20220525165544 70 156 5.0 14.0 0.00 0.00 0.00 41 1013.5
20220525165048 70 156 2.0 10.0 0.00 0.00 0.00 43 1013.5
20220525164539 69 156 5.0 11.0 0.00 0.00 0.00 44 1013.6
20220525164038 69 156 5.0 11.0 0.00 0.00 0.00 46 1013.7
20220525163542 68 156 0.0 13.0 0.00 0.00 0.00 46 1013.9
20220525163037 68 156 6.0 13.0 0.00 0.00 0.00 48 1013.8
20220525162537 68 156 5.0 12.0 0.00 0.00 0.00 47 1014.0
20220525162035 68 156 7.0 11.0 0.00 0.00 0.00 47 1014.0
20220525161534 68 156 4.0 10.0 0.00 0.00 0.00 47 1014.1
20220525161135 68 156 6.0 12.0 0.00 0.00 0.00 46 1014.2
20220525160534 68 156 3.0 10.0 0.00 0.00 0.00 46 1014.2
20220525160031 68 156 1.0 10.0 0.00 0.00 0.00 45 1014.3
20220525155535 67 156 4.0 10.0 0.00 0.00 0.00 47 1014.3
20220525155030 67 155 1.0 9.0 0.00 0.00 0.00 48 1014.3
20220525154529 67 156 1.0 8.0 0.00 0.00 0.00 48 1014.4
20220525154028 66 156 0.0 14.0 0.00 0.00 0.00 50 1014.5
20220525153526 65 156 2.0 14.0 0.00 0.00 0.00 51 1014.5
20220525152524 64 156 0.0 9.0 0.00 0.00 0.00 51 1014.8
20220525152022 64 156 1.0 9.0 0.00 0.00 0.00 53 1015.0
20220525151528 63 156 4.0 9.0 0.00 0.00 0.00 53 1015.0
20220525151121 63 156 3.0 9.0 0.00 0.00 0.00 58 1015.0
20220525150520 62 156 6.0 9.0 0.00 0.00 0.00 58 1015.0
20220525150021 62 155 4.0 9.0 0.00 0.00 0.00 58 1015.0
20220525145516 61 156 5.0 9.0 0.00 0.00 0.00 58 1015.0
20220525145015 61 156 1.0 6.0 0.00 0.00 0.00 58 1015.1
20220525144514 61 155 0.0 2.0 0.00 0.00 0.00 58 1015.2
20220525144014 61 156 0.0 5.0 0.00 0.00 0.00 59 1015.2
20220525143514 60 156 0.0 5.0 0.00 0.00 0.00 59 1015.3
20220525143011 60 156 0.0 4.0 0.00 0.00 0.00 60 1015.4
20220525142508 59 156 0.0 0.0 0.00 0.00 0.00 61 1015.4
20220525142008 58 155 0.0 1.0 0.00 0.00 0.00 62 1015.4
20220525141508 58 156 0.0 3.0 0.00 0.00 0.00 63 1015.4
20220525141104 57 155 0.0 3.0 0.00 0.00 0.00 65 1015.5
20220525140508 57 155 0.0 1.0 0.00 0.00 0.00 65 1015.5
20220525140004 56 155 0.0 1.0 0.00 0.00 0.00 64 1015.5
20220525135504 56 155 0.0 1.0 0.00 0.00 0.00 65 1015.5
20220525135003 56 155 0.0 0.0 0.00 0.00 0.00 66 1015.6
20220525134502 56 155 0.0 4.0 0.00 0.00 0.00 67 1015.6
20220525134000 55 155 0.0 5.0 0.00 0.00 0.00 70 1015.6
20220525133102 53 155 0.0 4.0 0.00 0.00 0.00 77 1015.7
20220525132602 53 155 0.0 6.0 0.00 0.00 0.00 78 1015.8
20220525132059 52 155 1.0 6.0 0.00 0.00 0.00 78 1015.8
20220525131558 52 155 2.0 6.0 0.00 0.00 0.00 80 1015.8
20220525131058 50 155 0.0 1.0 0.00 0.00 0.00 80 1016.0
20220525130559 50 155 0.0 1.0 0.00 0.00 0.00 81 1016.0
20220525130108 50 155 0.0 3.0 0.00 0.00 0.00 81 1016.1
20220525125557 49 155 0.0 4.0 0.00 0.00 0.00 81 1016.2
20220525125056 49 155 1.0 4.0 0.00 0.00 0.00 82 1016.2
20220525124553 49 155 0.0 4.0 0.00 0.00 0.00 82 1016.2
20220525124052 48 155 0.0 6.0 0.00 0.00 0.00 82 1016.1
20220525123552 48 155 2.0 6.0 0.00 0.00 0.00 82 1016.1
20220525123103 48 155 2.0 6.0 0.00 0.00 0.00 83 1016.1
20220525122555 47 155 1.0 6.0 0.00 0.00 0.00 83 1016.1
20220525122054 47 155 0.0 6.0 0.00 0.00 0.00 83 1016.1
20220525121550 47 155 2.0 6.0 0.00 0.00 0.00 83 1016.1
20220525121052 47 155 2.0 6.0 0.00 0.00 0.00 83 1016.2
20220525120549 47 155 3.0 6.0 0.00 0.00 0.00 83 1016.2
20220525120101 47 155 3.0 6.0 0.00 0.00 0.00 83 1016.2
20220525115549 46 155 1.0 6.0 0.00 0.00 0.00 83 1016.2
20220525115054 46 155 3.0 7.0 0.00 0.00 0.00 84 1016.2
20220525114548 46 155 4.0 7.0 0.00 0.00 0.00 85 1016.2
20220525114056 45 155 2.0 6.0 0.00 0.00 0.00 85 1016.3
20220525113549 45 155 0.0 4.0 0.00 0.00 0.00 85 1016.3
20220525112548 45 155 2.0 6.0 0.00 0.00 0.00 84 1016.2
20220525112048 45 155 2.0 7.0 0.00 0.00 0.00 84 1016.2
20220525111547 44 155 2.0 8.0 0.00 0.00 0.00 84 1016.2
20220525111047 44 155 3.0 8.0 0.00 0.00 0.00 83 1016.2
20220525110547 44 155 2.0 8.0 0.00 0.00 0.00 83 1016.2
20220525110100 45 155 3.0 8.0 0.00 0.00 0.00 83 1016.2
20220525105550 45 155 1.0 4.0 0.00 0.00 0.00 83 1016.2
20220525105044 45 155 0.0 5.0 0.00 0.00 0.00 82 1016.4
20220525104549 45 155 1.0 5.0 0.00 0.00 0.00 82 1016.4
20220525104051 45 155 0.0 3.0 0.00 0.00 0.00 82 1016.4
20220525103544 45 155 0.0 4.0 0.00 0.00 0.00 82 1016.5
20220525103055 45 155 2.0 6.0 0.00 0.00 0.00 82 1016.4
20220525102549 45 155 1.0 6.0 0.00 0.00 0.00 82 1016.4
20220525102042 45 155 0.0 3.0 0.00 0.00 0.00 82 1016.5
20220525101544 45 155 0.0 2.0 0.00 0.00 0.00 82 1016.6
20220525101042 45 155 0.0 0.0 0.00 0.00 0.00 82 1016.5
20220525100542 45 155 0.0 0.0 0.00 0.00 0.00 82 1016.6
20220525100046 45 155 0.0 0.0 0.00 0.00 0.00 82 1016.6
20220525095541 45 155 0.0 1.0 0.00 0.00 0.00 82 1016.6
20220525095047 45 155 0.0 1.0 0.00 0.00 0.00 82 1016.6
20220525094540 45 155 0.0 0.0 0.00 0.00 0.00 81 1016.7
20220525094038 45 155 0.0 0.0 0.00 0.00 0.00 80 1016.7
20220525093538 45 155 0.0 0.0 0.00 0.00 0.00 80 1016.8
20220525093038 45 155 0.0 0.0 0.00 0.00 0.00 80 1016.7
20220525092538 46 155 0.0 3.0 0.00 0.00 0.00 79 1016.8
20220525092036 46 155 0.0 3.0 0.00 0.00 0.00 79 1016.8
20220525091535 46 155 0.0 2.0 0.00 0.00 0.00 79 1016.7
20220525091037 46 155 0.0 0.0 0.00 0.00 0.00 78 1016.7
20220525090536 46 155 0.0 0.0 0.00 0.00 0.00 78 1016.7
20220525090035 46 155 0.0 6.0 0.00 0.00 0.00 78 1016.7
20220525085534 46 155 0.0 6.0 0.00 0.00 0.00 76 1016.8
20220525085033 47 155 0.0 4.0 0.00 0.00 0.00 75 1016.8
20220525084532 48 155 0.0 4.0 0.00 0.00 0.00 74 1016.8
20220525084032 48 155 0.0 7.0 0.00 0.00 0.00 73 1016.9
20220525083028 49 155 4.0 7.0 0.00 0.00 0.00 71 1016.9
20220525082526 50 155 2.0 10.0 0.00 0.00 0.00 69 1016.9
20220525082027 51 155 2.0 10.0 0.00 0.00 0.00 68 1017.0
20220525081524 51 155 0.0 0.0 0.00 0.00 0.00 66 1017.0
20220525081023 52 155 0.0 0.0 0.00 0.00 0.00 65 1017.1
20220525080522 52 155 0.0 0.0 0.00 0.00 0.00 65 1017.1
20220525080026 53 155 0.0 0.0 0.00 0.00 0.00 63 1017.2
20220525075520 54 155 0.0 1.0 0.00 0.00 0.00 62 1017.3
20220525075019 55 155 0.0 4.0 0.00 0.00 0.00 62 1017.3
20220525074518 55 155 0.0 5.0 0.00 0.00 0.00 62 1017.3
20220525074019 54 155 0.0 6.0 0.00 0.00 0.00 63 1017.4
20220525073518 54 155 0.0 6.0 0.00 0.00 0.00 63 1017.4
20220525073015 54 155 0.0 6.0 0.00 0.00 0.00 64 1017.5
20220525072514 54 155 1.0 6.0 0.00 0.00 0.00 64 1017.5
20220525072014 54 155 0.0 6.0 0.00 0.00 0.00 63 1017.4
20220525071517 54 155 0.0 4.0 0.00 0.00 0.00 63 1017.4
20220525071016 54 155 0.0 4.0 0.00 0.00 0.00 62 1017.5
20220525070514 55 155 0.0 4.0 0.00 0.00 0.00 62 1017.4
20220525070014 55 155 0.0 0.0 0.00 0.00 0.00 62 1017.4
20220525065513 55 155 0.0 0.0 0.00 0.00 0.00 62 1017.4
20220525065015 55 155 0.0 0.0 0.00 0.00 0.00 63 1017.5
20220525064514 54 155 0.0 0.0 0.00 0.00 0.00 62 1017.5
20220525064014 54 155 0.0 0.0 0.00 0.00 0.00 63 1017.6
20220525063514 54 155 0.0 4.0 0.00 0.00 0.00 63 1017.6
20220525062512 54 155 0.0 8.0 0.00 0.00 0.00 63 1017.6
20220525062016 54 155 1.0 8.0 0.00 0.00 0.00 63 1017.5
20220525061518 54 155 0.0 3.0 0.00 0.00 0.00 64 1017.5
20220525061013 54 155 0.0 0.0 0.00 0.00 0.00 64 1017.5
20220525060513 54 155 0.0 0.0 0.00 0.00 0.00 64 1017.6
20220525060012 53 155 0.0 0.0 0.00 0.00 0.00 65 1017.6
20220525055513 53 155 0.0 0.0 0.00 0.00 0.00 65 1017.6
20220525055013 53 155 0.0 0.0 0.00 0.00 0.00 64 1017.7
20220525054516 53 155 0.0 0.0 0.00 0.00 0.00 64 1017.7
20220525054011 53 155 0.0 0.0 0.00 0.00 0.00 60 1017.7
20220525053511 53 155 0.0 0.0 0.00 0.00 0.00 60 1017.7
20220525053012 54 155 0.0 0.0 0.00 0.00 0.00 59 1017.7
20220525052512 55 155 0.0 0.0 0.00 0.00 0.00 57 1017.7
20220525052011 55 155 0.0 0.0 0.00 0.00 0.00 57 1017.7
20220525051522 56 155 0.0 0.0 0.00 0.00 0.00 57 1017.7
20220525051012 56 155 0.0 7.0 0.00 0.00 0.00 59 1017.7
20220525050511 56 155 0.0 7.0 0.00 0.00 0.00 58 1017.7
20220525050012 56 155 0.0 5.0 0.00 0.00 0.00 57 1017.7
20220525045511 56 155 0.0 1.0 0.00 0.00 0.00 57 1017.6
20220525045011 56 155 0.0 0.0 0.00 0.00 0.00 56 1017.7
20220525044522 57 155 0.0 0.0 0.00 0.00 0.00 55 1017.7
20220525044011 57 155 0.0 0.0 0.00 0.00 0.00 54 1017.7
20220525043510 57 155 0.0 1.0 0.00 0.00 0.00 54 1017.7
20220525043026 57 155 0.0 1.0 0.00 0.00 0.00 54 1017.7
20220525042513 56 155 0.0 0.0 0.00 0.00 0.00 53 1017.8
20220525042010 56 155 0.0 0.0 0.00 0.00 0.00 52 1017.7
20220525041509 57 155 0.0 0.0 0.00 0.00 0.00 52 1017.7
20220525041009 57 155 0.0 0.0 0.00 0.00 0.00 52 1017.6
20220525040513 57 155 0.0 0.0 0.00 0.00 0.00 51 1017.6
20220525040009 58 155 0.0 0.0 0.00 0.00 0.00 49 1017.6
20220525035509 58 155 0.0 0.0 0.00 0.00 0.00 48 1017.5
20220525035009 58 155 0.0 0.0 0.00 0.00 0.00 48 1017.4
20220525034509 58 155 0.0 0.0 0.00 0.00 0.00 48 1017.3
20220525034009 59 155 0.0 0.0 0.00 0.00 0.00 47 1017.1
20220525033021 59 155 0.0 0.0 0.00 0.00 0.00 47 1017.1
20220525032512 59 155 0.0 0.0 0.00 0.00 0.00 47 1017.0
20220525032015 60 155 0.0 0.0 0.00 0.00 0.00 46 1017.0
20220525031511 60 155 0.0 0.0 0.00 0.00 0.00 45 1017.0
20220525031012 60 155 0.0 2.0 0.00 0.00 0.00 45 1016.9
20220525030510 60 155 0.0 2.0 0.00 0.00 0.00 44 1016.9
20220525030011 60 155 0.0 1.0 0.00 0.00 0.00 45 1016.8
20220525025511 60 155 0.0 1.0 0.00 0.00 0.00 44 1016.8
20220525025010 60 155 0.0 0.0 0.00 0.00 0.00 44 1016.7
20220525024511 61 155 0.0 0.0 0.00 0.00 0.00 43 1016.6
20220525024010 62 155 0.0 0.0 0.00 0.00 0.00 43 1016.6
20220525023508 62 155 0.0 0.0 0.00 0.00 0.00 43 1016.6
20220525023017 63 155 0.0 0.0 0.00 0.00 0.00 41 1016.5
20220525022509 63 155 0.0 0.0 0.00 0.00 0.00 40 1016.5
20220525022007 64 155 0.0 0.0 0.00 0.00 0.00 39 1016.4
20220525021508 65 155 0.0 0.0 0.00 0.00 0.00 39 1016.4
20220525021008 66 155 0.0 0.0 0.00 0.00 0.00 39 1016.3
20220525020507 66 155 0.0 0.0 0.00 0.00 0.00 39 1016.3
20220525020008 67 155 0.0 0.0 0.00 0.00 0.00 37 1016.4
20220525015508 67 155 0.0 0.0 0.00 0.00 0.00 37 1016.4
20220525015007 68 155 0.0 0.0 0.00 0.00 0.00 37 1016.3
20220525014511 68 155 0.0 0.0 0.00 0.00 0.00 34 1016.3
20220525014012 68 155 0.0 0.0 0.00 0.00 0.00 32 1016.3
20220525013508 68 155 0.0 0.0 0.00 0.00 0.00 32 1016.4
20220525012507 68 155 0.0 0.0 0.00 0.00 0.00 29 1016.2
20220525012006 68 155 0.0 0.0 0.00 0.00 0.00 30 1016.1
20220525011506 68 155 0.0 0.0 0.00 0.00 0.00 30 1016.1
20220525011006 68 155 0.0 0.0 0.00 0.00 0.00 29 1016.1
20220525010506 69 155 0.0 0.0 0.00 0.00 0.00 30 1016.0
20220525010005 69 155 0.0 0.0 0.00 0.00 0.00 29 1016.0
20220525005505 69 155 0.0 6.0 0.00 0.00 0.00 29 1016.1
20220525005006 69 155 0.0 10.0 0.00 0.00 0.00 28 1016.1
20220525004508 69 156 3.0 10.0 0.00 0.00 0.00 26 1016.1
20220525004006 69 155 1.0 7.0 0.00 0.00 0.00 27 1016.2
20220525003506 69 155 0.0 4.0 0.00 0.00 0.00 27 1016.2
20220525003006 69 155 0.0 9.0 0.00 0.00 0.00 27 1016.2
20220525002502 69 156 3.0 9.0 0.00 0.00 0.00 27 1016.1
20220525002003 70 155 3.0 12.0 0.00 0.00 0.00 27 1016.2
20220525001503 70 155 7.0 12.0 0.00 0.00 0.00 27 1016.1
20220525001002 70 155 1.0 9.0 0.00 0.00 0.00 27 1016.3
20220525000603 70 155 1.0 9.0 0.00 0.00 0.00 27 1016.3
20220525000501 70 155 2.0 9.0 0.00 0.00 0.00 28 1016.2
20220525000107 70 155 0.0 9.0 0.00 0.00 0.00 27 1016.4
20220524235600 70 156 2.0 10.0 0.00 0.00 0.00 26 1016.4
20220524235104 70 156 6.0 10.0 0.00 0.00 0.00 27 1016.5
20220524234559 70 155 6.0 9.0 0.00 0.00 0.00 28 1016.4
20220524234100 69 155 2.0 9.0 0.00 0.00 0.00 28 1016.4
20220524233100 69 155 4.0 9.0 0.00 0.00 0.00 28 1016.5
20220524232700 69 156 0.0 7.0 0.00 0.00 0.00 29 1016.4
20220524232059 69 155 2.0 6.0 0.00 0.00 0.00 28 1016.3
20220524231608 69 155 0.0 1.0 0.00 0.00 0.00 27 1016.3
20220524231058 69 155 0.0 3.0 0.00 0.00 0.00 28 1016.4
20220524230558 69 155 0.0 8.0 0.00 0.00 0.00 28 1016.4
20220524230059 69 155 2.0 8.0 0.00 0.00 0.00 27 1016.4
20220524225558 69 155 0.0 8.0 0.00 0.00 0.00 28 1016.4
20220524225057 69 155 2.0 8.0 0.00 0.00 0.00 27 1016.5
20220524224557 70 156 3.0 9.0 0.00 0.00 0.00 27 1016.4
20220524224100 71 155 5.0 10.0 0.00 0.00 0.00 26 1016.6
20220524223056 70 155 3.0 12.0 0.00 0.00 0.00 26 1016.7
20220524222555 70 155 7.0 14.0 0.00 0.00 0.00 27 1016.7
20220524222057 70 156 8.0 14.0 0.00 0.00 0.00 27 1016.6
20220524221559 69 155 4.0 11.0 0.00 0.00 0.00 27 1016.7
20220524221058 70 156 6.0 10.0 0.00 0.00 0.00 26 1016.7
20220524220554 71 156 3.0 8.0 0.00 0.00 0.00 26 1016.8
20220524220054 71 156 0.0 9.0 0.00 0.00 0.00 27 1016.8
20220524215553 71 156 2.0 9.0 0.00 0.00 0.00 26 1016.9
20220524215052 71 156 1.0 12.0 0.00 0.00 0.00 24 1016.8
20220524214603 71 156 4.0 12.0 0.00 0.00 0.00 24 1017.0
20220524214051 72 156 1.0 9.0 0.00 0.00 0.00 26 1016.9
20220524212549 72 156 0.0 7.0 0.00 0.00 0.00 26 1017.1
20220524212048 72 156 0.0 11.0 0.00 0.00 0.00 26 1017.2
20220524211549 72 156 1.0 11.0 0.00 0.00 0.00 26 1017.2
20220524211048 72 144 6.0 10.0 0.00 0.00 0.00 27 1017.1
20220524210546 71 156 0.0 10.0 0.00 0.00 0.00 27 1017.2
20220524210052 70 156 0.0 11.0 0.00 0.00 0.00 28 1017.2
20220524205543 70 155 6.0 11.0 0.00 0.00 0.00 27 1017.3
20220524205043 71 156 5.0 11.0 0.00 0.00 0.00 28 1017.3
20220524204543 70 155 3.0 12.0 0.00 0.00 0.00 28 1017.4
20220524204047 71 156 7.0 10.0 0.00 0.00 0.00 27 1017.3
20220524203042 72 156 0.0 0.0 0.00 0.00 0.00 27 1017.4
20220524202541 71 156 0.0 0.0 0.00 0.00 0.00 27 1017.3
20220524202041 71 156 0.0 1.0 0.00 0.00 0.00 28 1017.4
20220524201541 71 156 0.0 9.0 0.00 0.00 0.00 27 1017.4
20220524201040 71 156 2.0 9.0 0.00 0.00 0.00 27 1017.5
20220524200542 71 156 4.0 9.0 0.00 0.00 0.00 27 1017.3
20220524200039 71 156 2.0 9.0 0.00 0.00 0.00 27 1017.5
20220524195541 71 156 1.0 9.0 0.00 0.00 0.00 27 1017.5
20220524195037 71 156 0.0 8.0 0.00 0.00 0.00 26 1017.5
20220524194537 71 156 0.0 8.0 0.00 0.00 0.00 27 1017.6
20220524194037 71 156 1.0 9.0 0.00 0.00 0.00 28 1017.6
20220524193036 70 156 4.0 9.0 0.00 0.00 0.00 27 1017.6
20220524192535 70 156 1.0 11.0 0.00 0.00 0.00 24 1017.7